Temp
-13 -13 -13 -13 -13 -13 -13 -13 -13 -13 -13 -13 -13 -13 -13 -13 -13 -13 -13 -13 -13 -13 -13 -13 -13 -13 -13 -13 -13 -13 -13 -14 -14 -14 -14 -13 -13 -13
-14 -14 -14 -14 -14 -13 -13 -13 -13 -13 -13 -13 -13 -13 -13 -13 -13 -13 -13 -13 -13 -13 -13 -13 -13 -13 -13 -13 -13 -13 -13 -13 -13 -13 -13 -13 -13 -13
-14 -14 -14 -14 -14 -14 -13 -13 -14 -14 -14 -13 -13 -13 -13 -13 -13 -14 -14 -14 -14 -14 -14 -14 -14 -14 -14 -14 -14 -14 -13 -14 -14 -13 -13 -13 -13 -13
-14 -14 -14 -14 -14 -14 -14 -14 -14 -14 -14 -14 -14 -14 -14 -14 -14 -14 -14 -14 -14 -14 -14 -14 -14 -14 -14 -14 -14 -14 -14 -14 -14 -14 -14 -14 -14 -13
-14 -14 -14 -14 -15 -15 -15 -15 -14 -14 -14 -14 -15 -14 -14 -14 -14 -14 -14 -14 -14 -14 -15 -15 -15 -15 -15 -15 -15 -15 -15 -15 -14 -14 -14 -14 -14 -14
-15 -15 -15 -15 -15 -15 -15 -15 -15 -15 -15 -15 -15 -15 -15 -15 -14 -14 -15 -15 -15 -15 -15 -15 -15 -15 -15 -15 -15 -15 -15 -15 -15 -15 -15 -14 -14 -14
-15 -16 -16 -16 -16 -16 -16 -16 -16 -16 -16 -16 -16 -16 -16 -16 -16 -15 -15 -15 -15 -15 -15 -15 -16 -16 -16 -15 -15 -15 -15 -15 -15 -15 -15 -15 -14 -14
-17 -16 -17 -17 -17 -17 -17 -17 -17 -17 -17 -17 -17 -17 -17 -16 -16 -16 -16 -16 -16 -16 -16 -16 -16 -16 -16 -16 -16 -16 -16 -16 -16 -15 -15 -15 -15 -15
-18 -18 -18 -18 -18 -18 -18 -18 -18 -18 -18 -18 -18 -18 -18 -18 -18 -17 -17 -17 -17 -17 -17 -17 -17 -17 -17 -17 -17 -17 -17 -17 -17 -17 -16 -16 -16 -16
-19 -19 -19 -19 -19 -19 -19 -19 -19 -19 -19 -19 -19 -19 -19 -19 -19 -19 -18 -18 -18 -18 -18 -17 -19 -19 -19 -18 -18 -18 -18 -18 -18 -18 -18 -17 -17 -17
-21 -20 -20 -21 -21 -20 -20 -20 -20 -21 -21 -20 -20 -20 -20 -20 -20 -20 -20 -20 -19 -19 -19 -19 -19 -20 -20 -20 -20 -19 -19 -19 -19 -19 -19 -19 -18 -18
-22 -22 -22 -22 -22 -22 -22 -22 -22 -23 -23 -22 -22 -22 -22 -22 -22 -22 -21 -21 -21 -20 -21 -21 -20 -20 -20 -21 -22 -22 -21 -21 -21 -20 -20 -20 -20 -19
-23 -24 -24 -24 -24 -24 -24 -24 -24 -24 -25 -25 -25 -25 -25 -25 -25 -25 -24 -24 -23 -22 -22 -22 -22 -22 -22 -21 -22 -23 -23 -23 -22 -22 -22 -22 -22 -21
-26 -26 -26 -26 -25 -25 -25 -26 -26 -26 -26 -26 -26 -26 -26 -27 -27 -26 -26 -26 -25 -25 -24 -24 -24 -24 -24 -23 -23 -24 -24 -24 -24 -24 -24 -24 -23 -23
-26 -26 -26 -27 -27 -27 -27 -27 -28 -28 -28 -28 -27 -27 -27 -27 -27 -27 -27 -27 -27 -26 -26 -26 -25 -25 -25 -25 -24 -24 -24 -25 -25 -25 -25 -25 -25 -24
-27 -27 -28 -28 -28 -28 -29 -29 -29 -29 -29 -28 -28 -28 -28 -28 -28 -28 -28 -29 -28 -28 -28 -28 -28 -27 -27 -26 -26 -25 -25 -25 -25 -26 -26 -26 -26 -25
-28 -29 -29 -30 -30 -29 -29 -29 -29 -30 -30 -29 -29 -29 -29 -29 -29 -30 -30 -30 -30 -30 -30 -30 -30 -29 -29 -28 -28 -27 -27 -27 -27 -26 -26 -26 -26 -26
-29 -30 -30 -30 -30 -31 -31 -30 -30 -30 -30 -30 -30 -30 -30 -31 -31 -31 -31 -31 -31 -31 -31 -31 -31 -31 -30 -30 -29 -29 -29 -28 -28 -28 -28 -27 -27 -27
-30 -30 -30 -30 -30 -30 -30 -31 -31 -31 -31 -31 -32 -32 -32 -33 -33 -33 -33 -32 -32 -32 -32 -32 -32 -33 -32 -31 -31 -31 -30 -29 -29 -29 -29 -28 -28 -28
-30 -30 -31 -31 -31 -31 -31 -32 -32 -32 -32 -33 -33 -34 -34 -34 -34 -34 -34 -34 -33 -33 -33 -33 -33 -34 -34 -32 -31 -31 -32 -31 -31 -30 -29 -29 -29 -28
-32 -32 -32 -32 -32 -32 -33 -34 -34 -35 -35 -35 -35 -36 -36 -36 -36 -36 -35 -35 -35 -34 -34 -34 -35 -35 -34 -33 -32 -33 -34 -33 -32 -31 -31 -30 -30 -29
-32 -32 -33 -33 -34 -34 -35 -35 -36 -36 -36 -36 -37 -37 -37 -37 -36 -36 -35 -35 -35 -35 -35 -35 -35 -35 -34 -34 -33 -33 -34 -34 -33 -32 -32 -31 -31 -30
-34 -35 -35 -35 -35 -36 -36 -36 -36 -36 -37 -37 -37 -37 -37 -37 -36 -36 -35 -35 -35 -35 -35 -35 -35 -34 -34 -34 -34 -34 -33 -34 -33 -33 -32 -32 -31 -31
Height
5677 5676 5675 5674 5674 5674 5674 5673 5673 5673 5673 5673 5673 5673 5673 5674 5674 5674 5674 5674 5674 5675 5675 5676 5677 5677 5678 5679 5681 5682 5683 5684 5686 5687 5689 5690 5691 5693
5669 5669 5668 5667 5667 5666 5666 5666 5666 5666 5665 5666 5666 5665 5664 5664 5664 5664 5663 5663 5663 5663 5664 5665 5665 5666 5667 5668 5669 5670 5670 5672 5673 5675 5676 5678 5680 5681
5659 5658 5658 5657 5657 5656 5655 5655 5655 5655 5655 5654 5653 5654 5654 5654 5653 5653 5652 5652 5651 5651 5651 5652 5652 5653 5654 5655 5656 5657 5659 5660 5661 5662 5664 5665 5667 5669
5646 5645 5645 5645 5645 5644 5644 5644 5644 5644 5644 5642 5641 5639 5640 5640 5641 5640 5640 5640 5639 5639 5638 5638 5639 5640 5640 5641 5643 5644 5646 5647 5648 5650 5651 5654 5655 5656
5632 5631 5631 5630 5629 5629 5629 5629 5630 5629 5629 5629 5627 5626 5625 5625 5625 5625 5625 5625 5626 5625 5625 5625 5626 5626 5626 5627 5628 5629 5631 5633 5635 5636 5637 5639 5640 5642
5618 5616 5614 5613 5612 5612 5612 5612 5612 5612 5612 5611 5611 5610 5609 5609 5609 5609 5608 5609 5608 5609 5610 5610 5610 5611 5611 5612 5613 5614 5614 5616 5618 5620 5622 5623 5625 5627
5600 5599 5597 5596 5594 5594 5593 5592 5592 5592 5592 5592 5592 5591 5590 5590 5591 5591 5590 5590 5589 5590 5590 5591 5592 5592 5592 5594 5596 5596 5597 5599 5600 5602 5604 5607 5609 5611
5580 5578 5576 5575 5573 5572 5571 5570 5570 5569 5569 5569 5569 5569 5568 5568 5569 5569 5570 5571 5572 5569 5570 5570 5571 5570 5570 5572 5574 5576 5576 5578 5579 5581 5584 5587 5589 5593
5558 5556 5555 5552 5552 5551 5550 5549 5546 5545 5544 5544 5545 5544 5545 5542 5544 5544 5544 5547 5548 5547 5550 5553 5548 5548 5547 5549 5551 5554 5555 5556 5558 5560 5563 5566 5569 5572
5536 5535 5534 5530 5529 5528 5528 5527 5524 5523 5520 5521 5522 5521 5520 5518 5519 5519 5520 5521 5523 5523 5521 5531 5527 5526 5524 5524 5526 5529 5531 5532 5534 5537 5540 5543 5546 5550
5513 5512 5511 5508 5504 5506 5507 5505 5503 5499 5495 5496 5498 5497 5495 5494 5493 5494 5494 5494 5499 5501 5498 5499 5503 5499 5502 5502 5502 5503 5504 5506 5510 5513 5516 5519 5523 5526
5489 5487 5485 5485 5482 5480 5481 5481 5480 5475 5472 5472 5472 5473 5472 5472 5469 5467 5468 5470 5471 5477 5476 5470 5474 5472 5478 5478 5477 5477 5479 5481 5484 5487 5490 5494 5498 5503
5468 5464 5461 5459 5460 5458 5455 5456 5455 5453 5451 5450 5450 5449 5449 5447 5445 5442 5441 5442 5444 5448 5448 5441 5447 5447 5446 5451 5455 5454 5454 5455 5458 5462 5465 5468 5472 5477
5447 5445 5442 5439 5438 5437 5435 5433 5432 5431 5431 5430 5430 5431 5428 5426 5422 5421 5420 5417 5415 5419 5419 5412 5417 5417 5416 5422 5429 5431 5429 5430 5432 5435 5437 5441 5446 5449
5426 5425 5423 5421 5420 5418 5414 5411 5409 5408 5406 5407 5409 5409 5405 5401 5399 5397 5394 5391 5389 5390 5390 5387 5385 5387 5388 5392 5397 5401 5402 5407 5406 5407 5408 5411 5416 5421
5402 5401 5402 5400 5398 5396 5395 5393 5389 5386 5383 5382 5382 5382 5379 5375 5371 5366 5362 5358 5357 5362 5358 5355 5354 5353 5354 5358 5361 5371 5372 5375 5380 5378 5378 5380 5385 5390
5378 5382 5381 5378 5376 5374 5372 5371 5368 5363 5360 5357 5355 5354 5352 5347 5343 5337 5334 5331 5330 5332 5333 5328 5322 5320 5323 5326 5332 5339 5341 5343 5347 5349 5344 5351 5357 5363
5358 5361 5360 5359 5356 5352 5351 5348 5344 5340 5335 5330 5326 5323 5321 5317 5316 5313 5310 5310 5308 5309 5309 5308 5301 5295 5298 5303 5306 5310 5310 5312 5316 5317 5319 5323 5335 5336
5337 5339 5339 5338 5334 5330 5327 5322 5319 5315 5310 5307 5300 5295 5293 5292 5291 5291 5290 5289 5289 5288 5288 5286 5284 5280 5278 5282 5290 5284 5286 5290 5290 5293 5295 5299 5307 5313
5315 5314 5314 5312 5310 5307 5303 5298 5295 5291 5286 5281 5278 5276 5273 5272 5273 5273 5272 5271 5270 5270 5270 5269 5268 5266 5261 5264 5266 5270 5264 5268 5268 5272 5275 5279 5285 5290
5293 5292 5291 5288 5285 5282 5278 5273 5271 5269 5267 5263 5260 5257 5257 5256 5257 5257 5257 5256 5255 5254 5254 5255 5253 5249 5249 5248 5249 5253 5253 5250 5253 5255 5258 5261 5266 5270
5274 5271 5269 5265 5263 5262 5259 5257 5255 5254 5252 5248 5245 5243 5243 5242 5243 5243 5243 5242 5241 5240 5241 5241 5240 5238 5237 5236 5237 5240 5241 5239 5239 5242 5244 5247 5251 5254
5252 5250 5248 5245 5243 5242 5241 5241 5240 5240 5238 5235 5232 5231 5230 5231 5231 5231 5231 5231 5231 5231 5231 5231 5229 5228 5228 5227 5228 5230 5231 5230 5230 5232 5235 5236 5239 5241
Wind_Speed
26 25 23 22 21 21 21 23 23 24 23 26 29 31 32 35 37 40 42 43 44 45 45 45 44 43 42 42 42 43 44 44 44 45 45 45 44 43
32 32 31 29 28 27 28 29 29 29 31 32 32 33 35 38 40 42 43 44 45 45 45 46 46 46 45 45 45 45 44 44 44 45 45 47 48 49
39 40 38 37 36 35 36 37 37 36 36 39 39 39 41 42 42 42 44 46 47 48 49 49 50 50 50 49 49 48 47 47 47 46 46 46 45 44
46 46 46 45 45 44 44 44 44 45 44 45 46 47 47 48 48 50 50 49 49 49 49 49 49 49 49 48 48 48 48 49 50 51 52 51 48 46
52 54 54 54 54 53 53 53 53 53 53 53 53 54 54 54 55 55 55 54 54 54 55 54 53 52 52 52 51 51 50 50 49 49 49 49 50 51
59 59 60 61 61 62 62 62 61 60 61 60 60 60 61 62 62 62 63 63 62 60 59 59 59 59 59 58 56 55 54 53 52 51 51 51 51 50
66 67 68 68 68 68 68 68 68 68 68 68 68 68 67 68 68 69 70 70 72 70 69 68 65 64 64 64 63 62 62 61 61 60 58 58 57 55
68 69 69 70 71 71 71 72 73 74 74 74 74 74 75 75 75 75 76 77 75 76 76 75 75 73 72 71 69 68 66 67 67 67 66 65 62 60
68 69 70 71 71 72 73 74 74 75 76 77 78 78 78 79 79 80 81 80 80 80 80 78 80 80 79 78 76 74 72 70 70 69 70 69 69 68
69 69 68 70 71 72 73 73 73 74 76 76 77 78 79 80 80 81 81 83 84 83 84 83 79 79 79 81 81 79 77 77 77 76 75 75 74 73
71 71 71 69 70 71 71 72 75 75 77 77 78 78 78 79 79 80 81 83 83 84 86 88 85 83 80 78 80 82 82 82 80 79 79 78 77 77
74 71 69 68 68 69 69 70 71 73 75 75 76 77 78 79 80 81 83 85 85 87 85 86 87 89 86 82 80 79 79 80 81 80 80 80 79 78
70 69 68 68 67 67 68 68 69 70 69 70 70 70 71 72 73 75 78 80 82 83 85 89 88 86 87 87 82 80 80 80 81 81 80 80 79 79
64 61 61 64 66 68 69 70 69 70 70 70 69 65 65 67 72 75 77 80 84 84 84 86 85 86 87 86 85 83 82 82 82 81 81 80 79 78
62 59 63 66 70 69 68 68 67 66 67 68 69 71 75 79 81 82 85 89 92 89 92 95 95 93 91 89 88 85 86 84 83 84 84 84 83 82
65 70 64 65 67 65 62 63 67 70 73 76 78 76 79 84 84 84 84 84 87 87 87 90 93 94 96 96 95 93 91 91 88 87 89 90 91 90
67 60 61 63 63 65 67 68 70 72 73 75 75 80 83 84 87 85 78 74 74 69 65 66 72 76 80 82 88 91 93 94 94 93 94 93 94 95
68 63 64 63 63 64 67 69 73 77 81 84 84 83 86 85 79 73 68 65 64 60 58 58 61 65 66 65 66 66 69 70 70 72 75 75 72 74
70 72 74 73 71 72 74 75 75 78 81 85 83 77 71 65 61 58 56 56 55 53 52 52 53 55 58 58 53 58 60 60 62 62 63 65 63 65
69 69 69 69 73 75 76 78 78 76 73 70 67 63 57 55 53 50 50 50 49 49 48 48 48 49 52 53 54 51 55 55 56 57 57 57 57 59
63 66 69 72 73 74 70 64 60 54 51 52 51 49 47 48 47 47 49 49 47 45 43 40 41 43 44 45 46 41 39 45 47 48 48 49 49 52
65 67 69 68 64 61 56 51 47 45 44 42 42 43 42 43 44 46 44 41 40 38 35 32 34 36 38 40 38 33 31 34 38 37 39 40 41 44
57 59 60 58 56 52 49 46 43 42 41 39 39 40 40 41 41 38 35 32 27 25 24 24 27 29 30 31 30 26 23 26 29 30 30 32 35 37
Wind_Direction
262 262 265 265 266 269 276 281 282 280 271 262 259 258 257 256 256 256 257 258 260 261 262 262 261 261 261 262 262 263 263 262 262 261 262 261 263 264
263 263 266 269 270 273 277 277 278 279 279 275 270 267 263 260 260 261 262 262 262 262 262 262 262 262 261 260 260 260 260 260 261 262 262 263 264 265
263 264 265 266 265 266 269 271 273 274 274 276 276 272 269 267 265 262 261 262 262 263 263 264 264 265 265 265 265 265 265 264 264 262 261 260 262 264
263 265 265 265 265 265 266 265 267 270 270 270 271 272 272 271 267 266 266 265 265 264 263 263 263 264 263 263 262 263 264 264 264 265 265 264 264 262
265 265 266 266 265 265 265 265 265 266 267 267 267 269 271 271 270 268 267 266 266 266 267 267 268 267 267 267 267 267 265 264 264 265 265 266 267 267
270 269 269 269 269 269 268 267 266 266 266 266 266 267 268 269 269 270 270 270 269 268 267 266 267 267 267 268 269 269 270 270 269 269 268 268 268 267
272 272 272 272 271 271 270 270 269 268 268 267 267 268 268 268 268 268 268 269 270 270 270 269 269 269 268 267 267 268 267 268 270 270 269 269 268 267
272 270 270 270 270 269 269 268 268 267 267 267 267 267 267 267 267 267 267 267 268 268 268 271 270 271 270 270 269 267 266 267 268 268 268 270 269 268
275 274 273 273 272 271 270 270 269 268 267 266 266 266 265 266 265 265 265 265 265 267 266 267 269 270 270 270 270 270 271 271 270 269 269 268 267 268
278 277 275 274 273 272 272 272 271 271 270 269 268 268 267 267 266 265 264 264 264 265 266 266 268 269 269 270 269 269 270 271 272 271 271 270 269 268
280 279 278 276 274 273 271 271 271 271 271 270 270 269 268 267 267 267 266 266 265 265 266 266 265 266 267 268 269 269 269 270 270 270 270 269 269 268
279 278 275 273 271 270 269 268 267 269 269 270 270 270 270 270 270 269 268 267 267 266 267 268 266 266 265 266 267 268 268 268 268 268 267 267 267 266
274 272 272 272 270 269 269 269 268 268 269 270 271 272 273 274 275 274 273 272 269 267 266 265 265 265 264 264 264 265 266 266 265 265 265 264 264 264
273 273 274 275 275 274 274 272 272 272 272 271 271 273 275 277 278 278 278 278 273 270 268 269 267 267 267 265 264 263 264 264 264 264 263 262 261 261
272 272 276 277 273 273 273 273 273 274 275 275 277 279 281 282 283 283 282 280 277 276 271 270 270 270 269 267 264 263 261 261 263 263 264 264 262 261
273 273 277 274 271 270 271 274 279 281 282 284 286 286 285 286 286 284 281 277 274 272 271 270 268 265 265 264 263 262 263 263 263 266 266 265 264 264
278 275 273 270 269 271 273 278 282 282 283 284 284 285 286 284 280 278 278 278 277 275 272 271 270 268 267 268 267 266 266 266 265 265 265 264 264 264
270 268 267 273 280 282 285 286 285 284 285 285 283 282 279 280 279 276 274 274 274 274 271 269 268 268 268 267 268 265 263 263 261 260 260 259 257 257
268 267 268 271 277 281 286 287 285 282 281 281 283 281 279 277 274 271 271 270 271 271 271 269 269 271 271 270 268 268 266 265 263 260 259 258 256 253
267 269 275 280 282 285 285 284 285 285 285 281 277 273 272 271 271 271 271 273 274 273 273 273 273 274 273 272 269 267 268 265 263 261 259 256 253 249
275 279 282 282 284 284 285 286 285 284 283 278 273 269 268 267 267 268 270 273 277 277 275 273 273 269 270 271 270 268 266 268 265 263 260 257 253 249
280 281 282 283 283 283 281 278 279 283 285 284 278 270 267 265 267 269 275 276 275 275 275 271 266 265 267 268 268 268 265 263 262 259 257 255 252 248
281 282 282 282 280 278 274 272 276 279 282 283 284 275 268 268 271 273 273 271 270 269 272 271 268 266 266 269 272 273 266 259 259 258 256 254 251 249